Wind_Speed
31 33 40 29 22 20 15 13 15 15 9 20 16 26 18 18 18 16 11 4 7 9 5 5 5 5 7 7 3 5 17 23 23 23 19 23 28 35 45 43 44 38 36 38
31 41 36 25 20 21 21 20 19 15 5 20 10 17 16 17 14 14 13 6 4 7 6 4 3 3 4 4 5 5 7 11 21 22 24 24 30 30 36 45 45 39 40 39
37 28 27 31 24 23 23 23 18 16 17 18 17 17 18 15 17 18 14 12 9 9 6 6 6 4 2 1 3 6 7 9 12 21 26 28 29 30 35 35 36 38 33 38
32 34 12 9 28 22 24 21 18 19 22 20 17 7 19 20 16 16 17 11 10 10 9 7 9 5 4 4 3 4 6 11 15 19 22 23 22 22 26 28 30 35 39 40
30 32 33 31 24 20 23 16 20 22 24 21 13 7 11 13 12 15 17 14 13 10 9 7 5 8 9 9 7 7 7 9 10 14 18 17 18 18 22 25 26 29 30 33
30 22 18 19 22 23 19 19 20 23 20 9 21 18 16 20 20 20 15 15 15 14 13 11 9 12 15 14 13 12 10 10 10 10 11 11 13 15 17 18 20 22 22 25
28 32 30 23 19 22 21 19 4 6 5 7 16 14 20 16 14 14 15 17 17 16 14 15 17 14 17 19 16 15 14 12 11 12 13 13 14 17 17 19 19 20 20 24
27 16 33 29 34 28 25 27 13 6 3 6 15 8 6 5 13 14 17 19 22 19 19 16 15 16 17 18 20 19 18 17 17 16 16 17 18 18 18 21 24 27 29 29
9 15 16 19 25 33 31 33 25 26 17 5 12 14 19 20 19 16 20 14 21 16 21 15 10 16 18 20 18 20 21 21 21 20 20 20 21 22 23 26 30 30 30 28
33 15 11 7 16 23 35 19 11 12 4 5 5 9 14 10 17 20 14 19 18 19 17 15 14 15 14 14 18 19 20 22 22 25 27 28 28 26 25 29 31 32 33 33
24 35 29 26 22 15 21 31 30 27 23 8 8 11 22 20 11 12 13 14 20 19 17 17 15 15 17 20 22 21 21 20 24 26 27 28 22 26 31 29 38 37 37 35
8 15 21 37 38 31 23 18 28 27 14 13 21 26 14 6 8 8 12 15 23 24 22 22 16 15 17 21 26 28 27 27 26 27 28 30 30 32 21 31 31 35 36 35
9 4 11 22 30 24 25 33 33 27 24 36 17 23 30 25 23 15 15 14 23 22 19 21 20 19 17 16 20 24 26 27 28 28 28 31 30 30 29 28 19 24 16 21
12 12 9 5 10 19 24 17 21 32 36 25 40 35 36 27 29 25 22 22 18 20 22 19 19 17 16 16 18 17 17 16 19 24 27 28 28 26 26 26 20 24 22 22
16 17 19 21 17 19 25 32 33 31 37 38 33 38 39 33 29 26 19 25 23 25 22 24 25 23 20 22 19 21 16 13 19 23 25 22 23 24 23 22 23 20 20 20
9 17 28 33 25 20 28 31 41 42 36 37 34 41 34 27 21 24 24 27 31 25 25 28 24 26 24 25 23 23 23 21 18 22 26 25 22 23 22 22 22 22 22 23
10 10 11 18 18 19 25 23 23 41 44 38 38 34 31 35 34 28 27 30 29 36 31 29 28 32 29 28 25 26 27 27 27 28 25 24 25 25 27 26 27 26 25 27
16 13 11 15 17 3 36 33 25 30 36 45 43 38 27 31 27 28 26 30 29 29 28 28 34 26 29 30 30 29 29 30 32 31 26 24 24 26 26 28 30 29 30 31
17 15 10 7 5 20 42 34 30 25 34 21 44 45 37 33 34 37 29 24 28 30 29 32 30 27 29 31 30 32 30 28 33 31 26 26 25 26 29 30 31 33 34 34
21 19 18 11 4 7 48 35 23 36 48 18 20 31 38 35 46 44 30 26 28 23 23 23 24 28 27 28 29 30 30 35 32 26 25 25 26 26 28 29 32 34 34 30
12 13 21 20 10 19 25 23 23 15 19 22 26 21 16 38 54 46 36 29 31 31 31 27 26 30 29 28 28 29 33 32 28 27 27 28 30 31 28 27 28 27 27 28
17 13 15 14 9 14 10 16 13 22 11 11 23 22 26 18 21 28 31 30 30 27 30 26 29 28 25 26 29 30 29 26 26 29 31 31 31 29 27 26 26 27 29 29
24 23 11 17 16 19 22 28 30 27 31 5 12 20 28 22 17 17 20 11 22 24 24 24 23 21 23 24 24 26 26 26 28 31 32 31 29 28 28 29 31 32 32 32
29 33 35 32 34 24 28 17 23 22 29 5 11 14 22 26 29 26 27 17 16 18 19 18 18 18 19 19 22 24 26 28 30 31 31 30 29 30 32 33 34 35 35 35
21 25 28 38 39 32 25 27 21 18 20 21 13 13 19 20 24 24 25 25 23 18 16 17 19 18 19 20 21 24 27 29 31 31 31 31 32 34 35 37 37 38 39 38
32 33 28 26 23 25 23 22 18 17 17 19 11 11 14 19 22 26 29 30 26 24 23 21 21 20 22 22 23 25 27 30 30 30 30 32 35 37 38 39 40 41 41 42
Wind_Direction
207 216 227 232 235 252 238 237 257 257 303 309 276 259 285 291 283 277 305 278 244 253 284 302 350 34 31 24 60 166 203 215 225 224 217 212 205 207 205 208 204 201 215 210
213 226 233 238 239 249 251 253 252 273 293 321 261 264 278 285 291 273 280 274 223 261 258 230 267 345 16 39 67 94 144 196 197 201 197 200 207 205 215 215 224 211 208 214
217 232 241 234 231 236 246 250 250 269 296 312 250 259 265 277 291 265 261 264 236 217 222 237 233 230 144 80 101 128 129 125 169 195 198 196 197 200 209 218 211 208 219 207
223 219 203 205 224 230 249 232 256 279 290 277 250 250 261 269 281 273 254 259 255 230 219 218 227 208 194 197 154 160 166 155 153 161 170 176 181 181 192 200 199 202 202 205
219 227 231 236 226 219 228 229 268 287 278 260 233 232 243 251 259 278 273 256 244 226 207 206 225 217 211 208 197 189 183 180 174 168 169 169 172 173 181 187 189 192 195 201
233 232 226 233 235 234 236 261 280 284 257 234 247 251 254 257 267 274 276 273 254 235 217 192 190 218 219 220 211 213 204 193 186 193 186 188 187 189 192 193 198 202 209 215
224 230 233 233 233 224 231 242 279 265 220 233 260 248 260 262 255 263 270 264 246 247 230 216 205 224 224 225 223 222 225 220 207 203 203 201 203 212 213 214 219 221 223 228
221 242 233 224 226 227 228 233 214 228 215 255 254 230 249 266 240 277 284 249 248 248 250 238 225 225 234 238 231 233 231 230 232 228 223 222 218 220 223 226 228 229 229 234
219 232 224 237 239 231 235 243 242 256 271 275 248 251 257 262 269 273 261 260 234 246 227 227 235 227 235 239 245 244 242 238 238 244 244 240 237 235 234 230 231 234 236 239
239 254 229 207 232 232 232 228 236 229 197 259 249 241 235 254 267 275 268 252 234 241 220 228 234 232 224 238 251 249 249 250 250 250 249 249 246 246 252 254 248 243 242 244
240 241 241 241 255 253 231 237 246 255 251 241 263 260 265 271 269 273 262 261 236 218 222 226 236 240 243 246 247 252 250 252 252 256 258 253 246 252 254 260 262 260 256 256
226 250 245 255 262 256 256 255 247 233 241 249 249 248 233 248 251 278 270 255 232 229 237 237 239 248 250 252 252 254 256 258 265 269 275 280 274 246 252 260 287 256 267 263
322 319 280 273 267 267 269 263 252 256 262 245 239 255 260 263 263 270 232 247 239 234 237 234 245 239 262 266 263 258 259 255 262 270 276 276 278 280 267 281 285 252 257 260
296 311 284 260 282 295 298 288 271 254 253 255 248 256 259 259 265 268 261 265 226 242 250 237 238 257 268 274 283 276 264 256 260 268 270 268 271 273 268 267 269 257 263 264
266 277 292 294 293 293 289 278 267 267 259 245 259 257 259 261 269 266 276 255 240 244 234 239 250 256 277 267 272 276 278 278 289 282 276 275 265 265 258 258 262 259 259 260
280 275 269 287 294 286 301 275 261 264 275 276 271 259 261 263 257 258 271 256 254 250 248 243 246 259 272 267 264 272 280 272 298 303 277 271 268 262 258 248 253 257 255 259
251 253 273 278 283 289 279 303 295 267 263 271 268 276 265 257 261 259 263 257 258 250 254 250 255 261 268 266 270 268 270 265 278 290 282 269 260 260 257 252 250 254 258 262
246 247 251 277 298 237 284 281 302 287 270 264 262 266 274 259 259 262 265 259 264 250 252 254 251 251 262 256 260 261 263 269 274 290 273 268 259 257 258 256 254 256 259 261
249 246 254 262 230 286 286 282 279 309 287 274 259 253 257 260 267 253 260 267 252 252 255 253 243 257 262 255 254 257 261 270 276 281 268 262 268 262 259 259 254 257 257 259
227 232 234 229 228 249 282 288 279 286 286 246 265 256 249 248 252 256 251 271 261 263 253 256 244 246 247 247 253 255 262 272 275 276 273 269 267 265 262 256 252 252 253 252
202 221 226 241 250 271 281 285 286 288 279 251 247 272 263 246 249 255 254 267 262 261 260 256 252 250 250 248 251 259 267 272 274 277 280 274 269 271 266 252 248 246 252 260
226 222 212 215 231 268 298 305 299 295 270 285 253 249 247 265 254 244 248 256 262 260 261 249 245 246 242 246 256 261 265 271 273 277 278 275 270 268 259 252 251 256 260 264
225 215 240 235 242 274 284 300 301 292 311 252 283 253 244 242 259 225 226 247 255 253 240 229 224 232 241 251 261 263 265 266 271 276 277 273 268 263 257 256 258 260 263 266
243 243 254 259 257 268 290 283 303 306 316 351 302 276 255 259 258 257 259 255 224 225 244 251 253 248 250 260 266 264 265 268 272 275 273 267 261 257 257 259 261 263 265 267
254 243 250 254 259 275 273 293 306 307 277 307 331 274 276 266 256 255 236 226 237 238 251 262 249 254 266 268 268 265 266 269 273 273 268 261 256 256 258 261 263 265 267 268
243 253 258 252 260 270 269 278 268 276 283 303 309 283 251 276 269 256 246 241 223 230 244 257 258 264 270 277 276 273 272 272 272 268 263 258 257 259 261 263 264 266 268 269
Height
3081 3081 3075 3081 3088 3090 3091 3092 3093 3093 3093 3092 3088 3089 3090 3088 3086 3084 3083 3082 3081 3081 3082 3080 3078 3078 3077 3077 3075 3075 3078 3083 3086 3088 3091 3094 3100 3103 3109 3113 3117 3121 3127 3132
3076 3069 3075 3082 3084 3086 3088 3088 3089 3089 3090 3089 3086 3085 3086 3085 3084 3083 3082 3082 3081 3080 3081 3082 3081 3079 3079 3079 3078 3078 3077 3080 3082 3085 3090 3093 3098 3102 3107 3112 3114 3120 3124 3129
3065 3069 3073 3077 3080 3082 3083 3084 3085 3087 3085 3085 3084 3084 3083 3082 3081 3079 3079 3079 3079 3079 3079 3080 3082 3081 3081 3081 3081 3081 3082 3080 3081 3085 3088 3092 3097 3101 3104 3107 3110 3116 3120 3125
3064 3068 3067 3071 3073 3077 3078 3082 3083 3083 3083 3081 3080 3080 3079 3079 3078 3076 3076 3076 3078 3079 3078 3078 3080 3081 3083 3083 3083 3084 3084 3085 3085 3085 3089 3092 3095 3098 3101 3105 3109 3114 3118 3123
3055 3059 3063 3067 3068 3073 3074 3078 3080 3079 3077 3077 3075 3076 3074 3075 3074 3073 3073 3074 3076 3077 3077 3077 3079 3081 3083 3084 3085 3086 3086 3088 3090 3091 3092 3095 3097 3102 3105 3108 3110 3113 3116 3120
3055 3058 3061 3063 3066 3070 3074 3074 3074 3074 3073 3071 3070 3070 3068 3070 3071 3071 3070 3071 3072 3075 3076 3077 3077 3078 3081 3082 3084 3085 3087 3089 3090 3093 3093 3097 3101 3102 3104 3106 3109 3111 3114 3116
3051 3050 3055 3060 3062 3064 3067 3070 3072 3070 3067 3063 3066 3065 3062 3064 3065 3066 3067 3068 3069 3071 3073 3074 3075 3076 3079 3080 3082 3084 3086 3089 3090 3091 3093 3097 3099 3102 3103 3106 3107 3107 3110 3116
3044 3047 3049 3051 3053 3056 3060 3064 3066 3066 3065 3061 3061 3057 3057 3059 3061 3061 3061 3062 3064 3067 3069 3071 3072 3075 3077 3079 3081 3082 3084 3087 3088 3090 3092 3096 3098 3098 3100 3102 3104 3107 3110 3113
3041 3041 3044 3046 3050 3055 3054 3056 3062 3060 3058 3059 3055 3052 3053 3055 3056 3056 3056 3056 3058 3060 3063 3067 3069 3071 3073 3076 3078 3080 3082 3085 3086 3088 3092 3093 3095 3097 3099 3100 3101 3101 3104 3105
3038 3039 3040 3043 3045 3046 3050 3056 3057 3056 3059 3058 3048 3046 3046 3049 3051 3052 3052 3052 3054 3056 3058 3061 3065 3068 3070 3072 3074 3076 3079 3081 3084 3085 3086 3088 3090 3091 3092 3093 3094 3094 3095 3097
3033 3035 3036 3039 3039 3043 3048 3047 3050 3053 3052 3049 3048 3040 3041 3043 3045 3046 3047 3049 3052 3052 3055 3056 3059 3063 3066 3068 3070 3072 3075 3075 3076 3078 3078 3078 3081 3082 3082 3084 3085 3087 3087 3088
3028 3027 3028 3030 3037 3040 3042 3043 3046 3044 3045 3042 3039 3029 3039 3040 3043 3043 3045 3046 3048 3050 3051 3053 3055 3058 3060 3063 3064 3065 3068 3069 3071 3071 3071 3070 3070 3072 3074 3074 3072 3075 3075 3073
3028 3027 3026 3027 3032 3033 3032 3035 3039 3040 3041 3032 3038 3025 3034 3037 3040 3040 3041 3041 3043 3045 3046 3048 3050 3053 3054 3056 3058 3059 3061 3063 3064 3063 3063 3062 3063 3065 3066 3068 3067 3066 3065 3067
3026 3027 3029 3029 3029 3031 3029 3030 3033 3036 3032 3031 3023 3027 3030 3033 3034 3037 3038 3038 3039 3042 3042 3043 3046 3048 3050 3051 3052 3052 3055 3057 3057 3056 3057 3057 3057 3059 3060 3061 3061 3062 3061 3063
3025 3025 3025 3026 3028 3026 3023 3023 3023 3022 3022 3021 3021 3021 3026 3028 3030 3031 3032 3033 3034 3036 3038 3039 3041 3042 3044 3046 3048 3049 3050 3050 3051 3051 3051 3050 3051 3051 3052 3053 3055 3054 3055 3057
3020 3020 3021 3017 3022 3023 3018 3016 3017 3017 3018 3016 3017 3014 3022 3024 3024 3025 3026 3028 3028 3030 3032 3034 3035 3036 3038 3040 3042 3045 3046 3046 3046 3046 3045 3045 3044 3044 3045 3047 3048 3050 3051 3052
3016 3017 3017 3016 3016 3014 3013 3013 3011 3011 3011 3012 3010 3013 3018 3017 3019 3020 3020 3021 3022 3023 3026 3028 3029 3030 3032 3033 3035 3037 3040 3041 3041 3040 3039 3038 3037 3039 3039 3041 3041 3043 3043 3044
3011 3013 3014 3008 3007 3007 3003 3008 3010 3004 3003 3005 3005 3008 3012 3012 3012 3012 3013 3014 3015 3016 3019 3020 3023 3024 3025 3027 3029 3032 3033 3034 3034 3033 3032 3031 3030 3031 3032 3033 3034 3035 3036 3036
3006 3007 3007 3006 3003 3000 2998 3002 3003 3000 2988 2994 2996 2999 3003 3004 3004 3000 3006 3006 3008 3010 3012 3014 3015 3017 3018 3020 3022 3024 3025 3027 3026 3025 3024 3024 3024 3024 3025 3025 3026 3027 3027 3028
2999 3002 3005 3002 3002 2997 2981 2991 2992 2993 2981 2988 2989 2988 2989 2995 2992 2991 3001 3002 3003 3004 3005 3007 3008 3010 3010 3012 3014 3016 3018 3018 3017 3016 3015 3015 3017 3017 3017 3018 3018 3018 3019 3018
2995 2997 2997 2997 2996 2984 2979 2982 2983 2988 2985 2985 2983 2983 2980 2980 2980 2987 2993 2994 2995 2997 2998 2999 3001 3002 3004 3005 3007 3008 3008 3007 3006 3006 3006 3006 3006 3007 3008 3008 3008 3009 3010 3009
2989 2992 2991 2993 2992 2986 2980 2978 2979 2977 2975 2976 2976 2977 2975 2975 2974 2977 2983 2986 2988 2989 2989 2990 2992 2994 2996 2999 3000 3000 2999 2997 2997 2997 2996 2996 2996 2997 2998 2999 2999 2999 3000 3000
2982 2982 2986 2985 2978 2980 2978 2972 2974 2973 2975 2967 2971 2971 2969 2970 2973 2975 2976 2978 2980 2981 2981 2983 2985 2988 2990 2992 2992 2990 2989 2988 2988 2988 2988 2987 2987 2988 2989 2990 2990 2990 2990 2989
2975 2979 2979 2979 2973 2974 2973 2974 2973 2970 2967 2962 2966 2965 2965 2966 2968 2969 2971 2973 2974 2976 2977 2980 2981 2982 2983 2983 2984 2983 2982 2982 2981 2979 2979 2979 2979 2980 2982 2982 2982 2982 2981 2980
2972 2973 2972 2970 2970 2972 2972 2971 2968 2966 2964 2959 2962 2963 2963 2963 2963 2963 2964 2967 2969 2970 2973 2975 2976 2976 2976 2976 2975 2975 2975 2974 2974 2972 2972 2972 2973 2973 2974 2974 2974 2973 2972 2971
2965 2964 2965 2964 2966 2964 2965 2967 2964 2961 2961 2962 2957 2957 2957 2956 2956 2957 2959 2959 2959 2962 2966 2968 2969 2969 2969 2968 2967 2967 2967 2967 2966 2965 2964 2965 2965 2965 2965 2965 2964 2963 2962 2960